Regional Weather Roundup
Issued by NWS Wakefield, VA

Home | Current Version | Previous Version | Graphics & Text | Print | Product List | Glossary On
Versions: 1 2 3 4 5 6 7 8 9 10 11 12 13 14 15 16 17 18 19 20 21 22 23 24 25 26
000
ASUS41 KAKQ 102215
RWRAKQ

REGIONAL WEATHER ROUNDUP
NATIONAL WEATHER SERVICE WAKEFIELD VA
500 PM EST SUN DEC 10 2017

Note: "fair" indicates few or no clouds below 12,000 feet with no
significant weather and/or obstructions to visibility. * = Denotes
station may not report precipitation (e.g., rain,snow,etc.),
thunder or fog.

VAZ042-051-052>054-056-102300-
NORTHERN VIRGINIA

CITY           SKY/WX    TMP DP  RH WIND       PRES   REMARKS
WASH NATIONAL  MOCLDY    40  23  50 SW7       30.05R
DULLES         CLOUDY    36  25  64 SW3       30.03R
FORT BELVOIR   PTCLDY    40  22  49 CALM      30.05R
QUANTICO       MOCLDY    41  23  48 SW5       30.07R
FREDERICKSBRG* CLEAR     40  24  53 SW5       30.06R
STAFFORD*      CLEAR     38  22  52 SW3       30.09R
WARRENTON      PTCLDY    39  18  43 SW3       30.03S
CULPEPER*      CLOUDY    39  20  46 SW3       30.04F
MANASSAS*      CLOUDY    38  23  55 S3        30.04S
LEESBURG*      CLOUDY    37  25  60 W3        30.03S
WINCHESTER     PTCLDY    34  18  51 W5        30.01R
FRONT ROYAL*   PTCLDY    36  19  51 CALM      30.00S
LURAY*         CLEAR     36  23  60 S6        30.01R
$$

VAZ048-049-060>072-079>083-102300-
CENTRAL AND SOUTH CENTRAL VIRGINIA

CITY           SKY/WX    TMP DP  RH WIND       PRES   REMARKS
RICHMOND       PTCLDY    36  27  69 SW8       30.09S
CHESTERFIELD*  NOT AVBL
PETERSBURG*    CLEAR     36  27  69 SW3       30.11S
HANOVER        CLEAR     37  27  67 S5        30.09S
TAPPAHANNOCK*    N/A    N/A N/A N/A MISG        N/A
QUINTON*       FAIR      37  27  69 S7        30.08F
CHARLOTTSVILLE CLEAR     39  18  42 SW3       30.04R
GORDONSVILLE*  CLEAR     38  20  47 SW5       30.04S
ORANGE*        CLOUDY    37  21  52 CALM      30.04S
LOUISA*        PTCLDY    36  22  57 S5        30.10R
BUMPASS*       FAIR      36  25  65 CALM      30.06R
FARMVILLE*     CLEAR     37  28  67 SW5       30.08R
CREWE*         FAIR      36  27  69 CALM      30.09S
FORT PICKETT*  NOT AVBL
CHASE CITY*    FAIR      36  25  65 CALM      30.11S
CLARKSVILLE*   FAIR      36  27  69 SW6       30.12R
SOUTH HILL*    CLEAR     35  28  75 SW3       30.17S
LAWRENCEVILLE* FAIR      35  26  69 CALM      30.12R
EMPORIA*       CLEAR     36  27  69 SW5       30.15R
$$

VAZ088>098-102300-
SOUTHEAST VIRGINIA

CITY           SKY/WX    TMP DP  RH WIND       PRES   REMARKS
NORFOLK        CLEAR     40  24  53 W6        30.11R
VIRGINIA BEACH PTCLDY    38  23  55 W7        30.11R
NORFOLK NAVAL  PTCLDY    40  24  53 W8        30.13R
WEST POINT*    PTCLDY   N/A N/A N/A SW5       30.12R
SALUDA*        FAIR      36  27  68 W3        30.10R
NEWPORT NEWS   CLEAR     38  25  59 W8        30.11R
LANGLEY AFB    CLEAR     38  25  60 W8        30.11R
FORT EUSTIS    CLEAR     38  26  62 W5        30.09R
WILLIAMSBURG*  PTCLDY    39  28  65 W8        30.12R
HR EXEC AP*    FAIR      37  25  61 W3        30.13R
FRANKLIN*      CLEAR     37  25  63 W3        30.13S
US460-WAKEFLD  CLEAR     36  28  73 CALM      30.12R
$$

VAZ020-022-025-037-045-102300-
WEST CENTRAL AND SOUTHWEST VIRGINIA

CITY           SKY/WX    TMP DP  RH WIND       PRES   REMARKS
STAUNTON*      CLEAR     34  19  55 S7        30.03R
WAYNESBORO*    CLEAR     33  18  53 SW8       30.01S
HOT SPRINGS VA CLEAR     26  11  55 W14       29.91S WCI  14
LYNCHBURG      CLEAR     36  19  50 SW5       30.06S
DANVILLE       CLEAR     35  24  64 SW5       30.12S
SOUTH BOSTON*  FAIR      37  24  61 SW6       30.12S
MARTINSVILLE   CLEAR     35  21  57 SW3       30.12S
ROANOKE        CLEAR     38  19  46 SW8       30.07S
BLACKSBURG     CLEAR     33  20  58 SW6       30.05F
DUBLIN*        CLEAR     34  21  59 SW14      30.05R WCI  24
MARION*        CLEAR     32  18  55 W15       30.05F WCI  21
HILLSVILLE*    CLEAR     32  16  50 SW5       30.01S
RICHLANDS*     FAIR      32  15  50 W8        30.02F
WISE*          PTCLDY    34  18  51 SW8       30.04S
ABINGDON*      CLEAR     35  22  57 W9        30.08S
$$

MDZ021>025-VAZ099-100-102300-
SOUTHERN MARYLAND AND THE DELMARVA PENINSULA

CITY           SKY/WX    TMP DP  RH WIND       PRES   REMARKS
PATUXENT RIVER PTCLDY    36  28  73 S6        30.06F
BAY BRIDGE APT CLEAR     37  23  56 SW6       30.04F
LEONARDTOWN    CLEAR     36  30  80 CALM      30.07S
DOVER          PTCLDY    35  26  71 SW5       30.04R
GEORGETOWN     PTCLDY    35  24  64 S3        30.06S
EASTON         PTCLDY    37  25  60 CALM      30.08S
CAMBRIDGE      PTCLDY    36  27  69 CALM      30.06S
SALISBURY      PTCLDY    32  27  81 S6        30.07R
OCEAN CITY     CLEAR     34  26  72 W5        30.09R
WALLOPS ISLAND PTCLDY    36  27  69 CALM      30.09R
ACCOMACK*      MOCLDY    38  27  66 W5        30.09S
$$

NCZ012>017-030>032-102300-
NORTH CENTRAL AND EASTERN NORTH CAROLINA

CITY           SKY/WX    TMP DP  RH WIND       PRES   REMARKS
ROANOKE RAPIDS FAIR      37  27  65 CALM      30.13S
RALEIGH        PTCLDY    40  23  50 W3        30.14R
ELIZABETH CITY CLEAR     37  29  72 SW6       30.13R
AHOSKIE*       CLEAR     38  27  66 CALM      30.14R
EDENTON*       CLEAR     43  28  56 W5        30.14S
CURRITUCK*     CLEAR     40  26  56 SW3       30.13R
KILL DEVIL HLS NOT AVBL
MANTEO         CLEAR     40  25  53 NW3       30.14S
CAPE HATTERAS  CLEAR     40  28  62 W5        30.16R
TARBORO*       NOT AVBL
GOLDSBORO      CLEAR     40  26  57 SW3       30.14S
WASHINGTON     CLEAR     41  26  55 W7        30.16R
GREENVILLE     CLEAR     41  27  56 W3        30.17R
NEW BERN       CLEAR     39  28  64 CALM      30.17R
WILMINGTON     CLEAR     44  26  49 W6        30.18S
$$

VAZ048-102300-
ELSEWHERE

CITY           SKY/WX    TMP DP  RH WIND       PRES   REMARKS
HARRISBURG PA  CLOUDY    36  20  52 W7        29.99R
BALTIMORE      MOCLDY    37  22  54 W7        30.03R
ANNAPOLIS      PTCLDY    38  23  55 W3        30.04S
ANDREWS AFB    MOCLDY    37  22  54 SW6       30.03R
PHILADELPHIA   MOCLDY    37  21  52 W16       30.02R
HENDERSON NC   CLEAR     34  24  65 CALM      30.13R
GREENSBORO     CLEAR     36  22  56 SW6       30.11S
ROCKY MOUNT    CLEAR     39  26  59 SW5       30.15R
$$

VAZ100-102300-
MARINE

STATION/POSITION TIME  TEMP    WIND        PRES    WAVE   SWELL
                       AIR SEA DIR/SP/G            HT/PER HT/PER
                 (UTC) (F)     (DEG/KT/KT) (MB)    (FT/S) (FT/S)
BRANDYWINE LGT   2148          290/ 18/ 22   N/A
CAPE MAY NJ      2148   38 45  280/ 20/ 25 1017.0R
LEWES DE         2148   36 45  260/  5/  7 1017.8R
15NM E FENWICK I 2150   40 54  270/ 17/ 21 1018.2R   4/ 4   3/10
OCEAN-CITY-INLET 2148   37 48  280/  5/  6 1018.9R
WACHAPREAGUE VA  2148   38 44  250/  3/  4 1019.0R
THOMAS POINT MD  2200   39 47  260/  9/ 10   N/A
GOOSES REEF MD   2200   41 48  220/ 12/ 16 1017.9    1
COVE POINT MD    2148   38     220/ 10/ 11 1018.4F
SOLOMONS ISLAND  2148          220/  9/ 11   N/A
BISHOPS HEAD MD  2148   39 40  250/ 11/ 18 1018.5R
PINEY POINT MD   2148          230/  5/  8   N/A
POTOMAC MD       2200   40 49  250/ 12/ 16 1017.7    1/ 2
CAMBRIDGE MD     2142   37 45              1018.4F
LEWISETTA VA     2148          220/  6/  7   N/A
RAPPAHANNOCK LGT 2148          250/ 14/ 18 1019.5R
STINGRAY PT      2200   39 49  290/ 10/ 12 1019.3    1/ 2
YORK RVR RNG VA  2148   40     290/ 14/ 17 1019.6R
YORKTOWN VA      2148   39 51  270/ 10/ 12 1019.2R
JAMESTOWN VA     2200      49  260/  8/ 12   N/A     1/ 3
DOMINION TERM VA 2148   41     290/ 12/ 14 1019.8R
KIPTOPEKE VA     2148      50  270/ 15/ 19   N/A
CAPE HENRY VA    2148   40     240/  7/ 10   N/A
WILLOUBY STN VA  2148          270/ 14/ 16   N/A
S CRANEY ISL VA  2148   40     280/  7/ 10 1019.5R
CAPE HENRY BUOY  2200      56                N/A     3/ 9   2/11
1ST LANDING BUOY 2200   42 51  260/ 16/ 19 1019.4    2/ 3
CAPE CHARLES BUO 2151      55                N/A     3/10
64NM E OF VA BCH 2150   43 61  270/  8/ 12 1020.0R   5/ 9   5/ 9
DUCK PIER NC     2148   42 53  260/  8/ 10 1019.6R
44100 DUCK FRF   2145      57                N/A     4/ 9   2/11
44056 DUCK FRF   2200      54                N/A     3/ 8   2/11
OREGON INLET NC  2148          250/  6/ 14   N/A
HATTERAS NC      2148   42 52  260/  9/ 14 1020.9R
DIAMOND SHLS NC  2150   45 68  300/ 10/ 16 1021.4R   6/ 8   5/ 8
CAPE LOOKOUT NC  2200          270/  7/  9 1021.9R
$$




USA.gov is the U.S. government's official web portal to all federal, state and local government web resources and services.